Tracking 21473 objects as of 18-Sep-2020
HD Live streaming from Space Station
objects crossing your sky now

COSMOS 1581

Track COSMOS 1581 now!
COSMOS 1581 is classified as:


NORAD ID: 15095
Int'l Code: 1984-071A
Perigee: 3,103.9 km
Apogee: 37,431.4 km
Inclination: 66.0 °
Period: 721.2 minutes
Semi major axis: 26638 km
RCS: 9.1322 m2 (large)
Launch date: July 3, 1984
Source: Commonwealth of Independent States (former USSR) (CIS)
Launch site: PLESETSK MISSILE AND SPACE COMPLEX (PKMTR)
aabbcc
Your satellite tracking list
Your tracking list is empty




NASA's NSSDC Master Catalog

Two Line Element Set (TLE):
1 15095U 84071A   20261.36607767 +.00000175 +00000-0 +00000-0 0  9996
2 15095 065.9772 210.8285 6443177 040.6529 352.7072 01.99679887238555
Source of the keplerian elements: AFSPC